Weather Roundup
Issued by NWS Chicago, IL

Home | Current Version | Previous Version | Text Only | Print | Product List | Glossary Off
Versions: 1 2 3 4 5 6 7 8 9 10 11 12 13 14 15 16 17 18 19 20 21 22 23 24 25 26 27 28 29 30 31 32 33 34 35 36 37 38 39 40 41 42 43 44 45 46 47 48 49 50

000
NZUS59 KLOT 291806
HRRLOT

CHICAGO AREA WEATHER ROUNDUP
NATIONAL WEATHER SERVICE CHICAGO/ROMEOVILLE IL
100 PM CDT TUE JUL 29 2014

NOTE: "FAIR" INDICATES FEW OR NO CLOUDS BELOW 12,000 FEET WITH NO
SIGNIFICANT WEATHER AND/OR OBSTRUCTIONS TO VISIBILITY.

* THESE STATIONS ARE NOT UNDER NWS QUALITY CONTROL. THEY ALSO MAY NOT
  REPORT WEATHER SUCH AS PRECIPITATION OR FOG.

ILZ005-006-012>014-019>023-291900-
NORTHEAST ILLINOIS

CITY           SKY/WX    TMP DP  RH WIND       PRES   REMARKS
OHARE          PTSUNNY   78  51  38 NW15G22   30.02F
6HR MIN TEMP:  62; 6HR MAX TEMP:  79;

MIDWAY         MOSUNNY   79  53  40 N12       30.02F
6HR MIN TEMP:  62; 6HR MAX TEMP:  80;

AURORA         SUNNY     78  55  44 NW9       30.04F
6HR MIN TEMP:  55; 6HR MAX TEMP:  78;

LANSING*       PTSUNNY   76  52  43 NW8G16    30.02F
JOLIET*        SUNNY     77  53  42 W7        30.04F
WAUKEGAN       MOSUNNY   76  54  46 VRB5      30.01F
6HR MIN TEMP:  61; 6HR MAX TEMP:  76;

DUPAGE AIRPORT SUNNY     78  54  43 N15G23    30.03F
6HR MIN TEMP:  60; 6HR MAX TEMP:  78;

WHEELING       MOSUNNY   78  53  41 NW10G25   30.03F
6HR MIN TEMP:  63; 6HR MAX TEMP:  80;

KANKAKEE*      PTSUNNY   75  58  54 W9G17     30.05F
MORRIS*        MOSUNNY   78  58  51 NW13G21   30.05S
LEWIS AIRPORT* MOSUNNY   76  53  45 W14       30.04S
NORTHERLY IS     N/A     70  59  68 NE5         N/A
$$

WIZ051-052-058>065-066-070>072-291900-
SOUTHEAST WISCONSIN

CITY           SKY/WX    TMP DP  RH WIND       PRES   REMARKS
MILWAUKEE      MOSUNNY   76  53  44 NW12      30.01F
6HR MIN TEMP:  62; 6HR MAX TEMP:  76;

KENOSHA*       MOSUNNY   75  56  51 NW12      30.02F
RACINE*        PTSUNNY   72  58  61 SE7       30.03F
BURLINGTON     SUNNY     73  53  49 NW13      30.03S
WAUKESHA       MOSUNNY   73  52  46 W8        30.04F
WEST BEND      SUNNY     72  52  49 NW13      30.02F
$$

INZ001>003-010>013-019-020-291900-
NORTHWEST INDIANA

CITY           SKY/WX    TMP DP  RH WIND       PRES   REMARKS
GARY*          MOSUNNY   75  57  53 N12G25    30.03F
MICHIGAN CITY* NOT AVBL
RENSSELAER*    NOT AVBL
VALPARAISO     SUNNY     75  56  51 NW10      30.03F
$$

LMZ740>746-291900-
SOUTHERN LAKE MICHIGAN

STATION/POSITION TIME  SKY/WX   TEMP WIND        PRES    VSBY
                                AIR  DIR/SP/G
                 (UTC)          (F)  (DEG/KT/KT) (MB)    (MI)
HARRISON CRIB    1800            67   40/  9/ 10   N/A
BURNHAM HARBOR   1800            69   50/  5/ 10   N/A
CALUMET HARBOR   1800            67   50/  9/ 10 1015.6S
BURNS HARBOR     NOT AVBL
MICHIGAN CITY    1800            67  330/ 10/ 12   N/A
$$

ABBREVIATIONS USED IN REMARKS
   TC - TEMPERATURE IN CELSIUS
  WCI - WIND CHILL INDEX
   HX - HEAT INDEX
  VSB - VISIBILITY
$$


USA.gov is the U.S. government's official web portal to all federal, state and local government web resources and services.